TimeEDT,TemperatureF,Dew PointF,Humidity,Sea Level PressureIn,VisibilityMPH,Wind Direction,Wind SpeedMPH,Gust SpeedMPH,PrecipitationIn,Events,Conditions,WindDirDegrees,DateUTC
12:15 AM,55.6,47.8,75,30.07,10.0,Calm,Calm,-,N/A,,Clear,0,2013-06-09 04:15:00
12:35 AM,54.0,47.1,78,30.07,10.0,Calm,Calm,-,N/A,,Clear,0,2013-06-09 04:35:00
12:55 AM,53.8,48.9,84,30.07,10.0,Calm,Calm,-,N/A,,Clear,0,2013-06-09 04:55:00
1:15 AM,52.5,47.8,84,30.08,10.0,Calm,Calm,-,N/A,,Clear,0,2013-06-09 05:15:00
1:35 AM,51.8,49.3,91,30.08,10.0,Calm,Calm,-,N/A,,Clear,0,2013-06-09 05:35:00
1:55 AM,51.8,49.6,92,30.08,10.0,West,3.5,-,N/A,,Clear,270,2013-06-09 05:55:00
2:15 AM,51.3,49.6,94,30.08,10.0,West,4.6,-,N/A,,Clear,280,2013-06-09 06:15:00
2:35 AM,51.1,49.1,93,30.09,10.0,West,6.9,-,N/A,,Clear,280,2013-06-09 06:35:00
2:55 AM,50.9,48.9,93,30.08,10.0,West,4.6,-,N/A,,Clear,280,2013-06-09 06:55:00
3:15 AM,50.4,48.4,93,30.09,10.0,Calm,Calm,-,N/A,,Clear,0,2013-06-09 07:15:00
3:35 AM,50.0,47.8,92,30.09,10.0,Calm,Calm,-,N/A,,Clear,0,2013-06-09 07:35:00
3:55 AM,50.0,48.4,94,30.09,10.0,Calm,Calm,-,N/A,,Clear,0,2013-06-09 07:55:00
4:15 AM,49.3,47.3,93,30.08,10.0,Calm,Calm,-,N/A,,Clear,0,2013-06-09 08:15:00
4:35 AM,48.7,47.3,95,30.08,10.0,West,3.5,-,N/A,,Clear,270,2013-06-09 08:35:00
4:55 AM,49.6,48.2,95,30.08,10.0,West,5.8,-,N/A,,Clear,280,2013-06-09 08:55:00
5:15 AM,49.6,48.0,94,30.08,10.0,Calm,Calm,-,N/A,,Clear,0,2013-06-09 09:15:00
5:35 AM,49.3,47.7,94,30.08,10.0,Calm,Calm,-,N/A,,Clear,0,2013-06-09 09:35:00
5:55 AM,49.6,48.2,95,30.09,10.0,Calm,Calm,-,N/A,,Mostly Cloudy,0,2013-06-09 09:55:00
6:15 AM,48.6,47.5,96,30.09,10.0,Calm,Calm,-,N/A,,Overcast,0,2013-06-09 10:15:00
6:35 AM,50.4,49.1,95,30.09,10.0,Calm,Calm,-,N/A,,Overcast,0,2013-06-09 10:35:00
6:55 AM,50.9,49.3,94,30.09,10.0,Calm,Calm,-,N/A,,Overcast,0,2013-06-09 10:55:00
7:15 AM,53.1,51.6,95,30.09,10.0,WNW,5.8,-,N/A,,Overcast,290,2013-06-09 11:15:00
7:35 AM,55.0,52.2,90,30.09,10.0,NNE,5.8,-,N/A,,Overcast,30,2013-06-09 11:35:00
7:55 AM,55.4,53.2,92,30.09,10.0,Calm,Calm,-,N/A,,Mostly Cloudy,0,2013-06-09 11:55:00
8:15 AM,56.7,54.3,92,30.09,10.0,Calm,Calm,-,N/A,,Mostly Cloudy,0,2013-06-09 12:15:00
8:35 AM,58.6,54.5,86,30.09,10.0,East,4.6,-,N/A,,Mostly Cloudy,90,2013-06-09 12:35:00
8:55 AM,59.9,51.3,73,30.09,10.0,East,6.9,-,N/A,,Mostly Cloudy,100,2013-06-09 12:55:00
9:15 AM,61.7,52.0,70,30.09,10.0,East,6.9,-,N/A,,Scattered Clouds,100,2013-06-09 13:15:00
9:35 AM,63.0,52.3,68,30.08,10.0,East,4.6,-,N/A,,Clear,100,2013-06-09 13:35:00
9:55 AM,64.4,52.7,66,30.07,10.0,SE,5.8,-,N/A,,Clear,130,2013-06-09 13:55:00
10:15 AM,65.5,52.7,63,30.07,10.0,East,11.5,-,N/A,,Clear,100,2013-06-09 14:15:00
10:35 AM,66.6,53.1,62,30.07,10.0,ESE,8.1,-,N/A,,Clear,110,2013-06-09 14:35:00
10:55 AM,67.5,53.6,61,30.07,10.0,SE,8.1,-,N/A,,Clear,140,2013-06-09 14:55:00
11:15 AM,68.5,54.3,60,30.07,10.0,SE,10.4,-,N/A,,Clear,140,2013-06-09 15:15:00
11:35 AM,69.8,54.5,58,30.07,10.0,SE,5.8,-,N/A,,Clear,140,2013-06-09 15:35:00
11:55 AM,70.9,55.0,57,30.06,10.0,SSE,10.4,21.9,N/A,,Clear,160,2013-06-09 15:55:00
12:14 PM,72.0,55.4,56,30.06,10.0,SE,11.5,23.0,N/A,,Clear,130,2013-06-09 16:14:00
12:35 PM,72.9,55.8,55,30.06,10.0,ESE,12.7,20.7,N/A,,Clear,120,2013-06-09 16:35:00
12:55 PM,72.7,55.6,55,30.05,10.0,ESE,4.6,20.7,N/A,,Scattered Clouds,110,2013-06-09 16:55:00
1:15 PM,73.6,56.8,56,30.05,10.0,East,6.9,19.6,N/A,,Scattered Clouds,100,2013-06-09 17:15:00
1:35 PM,72.7,55.2,54,30.04,10.0,East,10.4,19.6,N/A,,Mostly Cloudy,100,2013-06-09 17:35:00
1:55 PM,73.2,55.2,53,30.04,10.0,East,12.7,18.4,N/A,,Overcast,100,2013-06-09 17:55:00
2:15 PM,74.1,55.6,52,30.03,10.0,East,13.8,20.7,N/A,,Mostly Cloudy,90,2013-06-09 18:15:00
2:35 PM,72.7,54.1,52,30.03,10.0,ESE,10.4,16.1,N/A,,Overcast,110,2013-06-09 18:35:00
2:55 PM,72.5,53.6,51,30.02,10.0,East,10.4,20.7,N/A,,Overcast,100,2013-06-09 18:55:00
3:15 PM,72.0,54.1,53,30.02,10.0,East,10.4,16.1,N/A,,Overcast,100,2013-06-09 19:15:00
3:35 PM,73.9,55.0,52,30.01,10.0,ESE,11.5,19.6,N/A,,Mostly Cloudy,120,2013-06-09 19:35:00
3:55 PM,74.3,55.2,51,30.01,10.0,ESE,12.7,18.4,N/A,,Mostly Cloudy,110,2013-06-09 19:55:00
4:15 PM,74.7,54.5,49,30.00,10.0,ESE,12.7,21.9,N/A,,Mostly Cloudy,110,2013-06-09 20:15:00
4:35 PM,73.9,54.7,51,30.00,10.0,ESE,18.4,25.3,N/A,,Mostly Cloudy,120,2013-06-09 20:35:00
4:55 PM,74.5,55.4,51,29.98,10.0,East,15.0,21.9,N/A,,Scattered Clouds,100,2013-06-09 20:55:00
5:15 PM,73.9,54.5,51,29.97,10.0,East,15.0,21.9,N/A,,Scattered Clouds,90,2013-06-09 21:15:00
5:35 PM,74.1,54.5,50,29.97,10.0,East,11.5,17.3,N/A,,Overcast,100,2013-06-09 21:35:00
5:55 PM,73.9,54.5,51,29.96,10.0,East,11.5,23.0,N/A,,Mostly Cloudy,100,2013-06-09 21:55:00
6:15 PM,73.8,54.3,51,29.96,10.0,East,9.2,19.6,N/A,,Overcast,100,2013-06-09 22:15:00
6:35 PM,73.6,54.1,50,29.97,10.0,East,9.2,16.1,N/A,,Overcast,100,2013-06-09 22:35:00
6:55 PM,73.2,54.1,51,29.96,10.0,East,9.2,19.6,N/A,,Overcast,100,2013-06-09 22:55:00
7:14 PM,72.9,54.5,52,29.96,10.0,ESE,10.4,-,N/A,,Mostly Cloudy,110,2013-06-09 23:14:00
7:35 PM,72.5,53.4,51,29.96,10.0,ESE,13.8,21.9,N/A,,Mostly Cloudy,120,2013-06-09 23:35:00
7:55 PM,72.3,52.0,49,29.97,10.0,ESE,13.8,25.3,N/A,,Mostly Cloudy,110,2013-06-09 23:55:00
8:15 PM,71.6,51.4,49,29.97,10.0,ESE,13.8,20.7,N/A,,Clear,120,2013-06-10 00:15:00
8:35 PM,70.7,49.5,47,29.97,10.0,ESE,11.5,19.6,N/A,,Clear,110,2013-06-10 00:35:00
8:55 PM,70.0,48.7,47,29.97,10.0,ESE,12.7,24.2,N/A,,Scattered Clouds,110,2013-06-10 00:55:00
9:15 PM,69.6,48.7,47,29.96,10.0,ESE,12.7,21.9,N/A,,Mostly Cloudy,110,2013-06-10 01:15:00
9:35 PM,69.1,48.7,48,29.96,10.0,ESE,11.5,20.7,N/A,,Overcast,110,2013-06-10 01:35:00
9:54 PM,69.1,48.9,49,29.96,10.0,ESE,9.2,20.7,N/A,,Overcast,110,2013-06-10 01:54:00
10:15 PM,68.9,49.1,49,29.96,10.0,ESE,11.5,20.7,N/A,,Overcast,120,2013-06-10 02:15:00
10:35 PM,68.5,49.3,50,29.96,10.0,SE,11.5,16.1,N/A,,Overcast,130,2013-06-10 02:35:00
10:54 PM,68.4,49.6,51,29.96,10.0,ESE,6.9,-,N/A,,Overcast,120,2013-06-10 02:54:00
11:15 PM,68.2,49.1,50,29.96,10.0,ESE,10.4,18.4,N/A,,Overcast,110,2013-06-10 03:15:00
11:35 PM,66.6,50.0,55,29.95,10.0,SSE,5.8,-,N/A,,Scattered Clouds,160,2013-06-10 03:35:00
11:55 PM,66.2,50.4,57,29.95,10.0,ESE,8.1,-,N/A,,Scattered Clouds,110,2013-06-10 03:55:00